HISPASAT 30W-5

Last updated on Sun Jun 21 2026 00:03:05 GMT+0000 (Coordinated Universal Time)

1 37264U 10070A 26171.38609045 -.00000220 00000+0 00000+0 0 9995 2 37264 0.0545 106.3850 0005337 359.4608 271.7471 1.00271429 53210
UTC large
Height (km)
Speed (km/s)
/
Latitude / Longitude
Inclination (degrees)
Orbital Period (minutes)
Azimuth
Elevation
Range (km)
Doppler Factor

Next 0 passes for location: London (51.5072 / 0.1276)

No passes found over London.
HISPASAT 30W-5